CAPE
0 0 0 0 0 0 0 0 0 0 0 0 0 0 0 0 0 0 0 0 0 0 0 0 0 29 51 91 13 0 0 0 0 0 0 0 0 0 0 0 0 1 0
0 0 0 0 0 0 0 0 0 0 0 0 0 0 0 0 0 0 0 0 0 0 0 0 0 0 35 72 89 85 0 0 0 0 0 0 0 0 0 0 0 0 0
0 0 0 0 0 0 0 0 0 0 0 0 0 0 0 0 0 0 0 0 0 0 0 0 0 0 8 59 64 92 87 46 0 0 0 0 0 0 0 0 1 0 1
27 2 0 0 0 0 0 0 0 0 0 0 0 0 4 7 6 4 2 1 0 0 1 5 9 18 25 28 35 63 95 87 59 5 0 0 0 0 0 0 3 3 4
104 96 38 8 12 16 0 0 0 0 0 5 5 9 10 10 4 2 2 0 14 21 15 26 29 20 13 10 12 23 20 74 60 53 75 17 0 0 0 0 2 4 4
216 200 153 104 47 21 20 15 26 19 28 13 11 10 7 4 1 0 0 0 14 27 8 11 9 0 0 0 0 10 11 15 43 78 68 64 82 17 0 0 2 1 2
486 410 398 309 217 188 149 112 113 57 6 10 14 14 11 6 0 0 0 0 30 3 0 0 0 0 0 0 0 0 0 0 0 0 0 65 47 87 52 20 2 3 1
359 353 329 262 178 159 91 32 4 4 4 6 15 18 4 0 0 0 0 0 9 0 0 0 0 0 0 0 0 0 0 0 0 1 0 0 0 31 48 88 81 30 14
62 86 68 81 50 37 4 7 1 8 6 5 14 26 17 1 0 0 0 1 0 0 0 0 0 0 0 0 0 0 0 0 0 2 3 4 3 5 5 28 72 319 225
0 0 0 0 0 0 0 0 0 0 0 0 0 0 9 21 7 3 0 0 0 1 0 0 0 0 0 0 0 0 0 0 1 3 4 4 2 9 29 52 48 77 129
0 0 0 0 0 0 0 0 0 0 0 0 0 0 0 0 0 9 1 0 2 0 0 0 0 0 0 0 0 0 1 1 1 3 3 4 5 5 7 3 2 4 81
0 0 0 0 0 0 0 0 0 0 0 0 0 0 0 0 0 7 22 14 10 4 0 0 0 0 0 0 0 0 1 1 0 3 2 4 2 0 0 3 3 2 2
0 0 0 0 0 0 0 0 0 0 0 0 0 0 5 6 5 10 19 25 29 12 0 0 0 0 0 0 0 0 1 1 0 14 27 14 4 3 2 4 8 6 0
0 0 0 0 0 0 0 0 0 0 0 0 0 0 0 0 0 8 30 6 8 10 1 0 0 0 0 0 0 0 0 1 3 11 13 5 2 1 13 16 3 3 4
0 0 0 0 0 0 0 0 0 0 0 0 0 0 0 0 0 0 0 0 8 3 2 1 1 0 0 0 0 0 0 0 3 8 5 4 3 3 3 5 10 2 2
0 0 0 0 0 0 0 0 0 0 0 0 0 0 0 0 0 0 0 0 0 0 0 1 1 0 0 0 0 0 0 0 0 1 1 4 5 5 3 1 3 4 4
0 0 0 0 0 0 0 0 0 0 0 0 0 0 0 0 0 0 0 0 0 0 0 1 1 0 0 0 0 0 0 0 0 0 0 4 2 5 1 0 1 1 3
0 0 0 0 0 0 0 0 0 0 0 0 0 0 0 0 0 0 0 0 0 0 0 0 2 0 0 0 0 0 0 0 0 0 0 0 0 2 2 1 1 1 0
0 0 0 0 0 0 0 0 0 0 0 0 0 0 0 0 0 0 0 0 0 0 0 0 0 0 0 0 0 0 0 0 0 0 0 0 0 0 0 0 0 0 0
0 0 0 0 0 0 0 0 0 0 0 0 0 0 0 0 0 0 0 0 0 0 0 0 0 0 0 0 0 0 0 0 0 0 0 0 0 0 0 0 0 0 0
0 0 0 0 0 0 0 0 0 0 0 0 0 0 0 0 0 0 0 0 0 0 0 0 0 0 0 0 0 0 0 0 0 0 0 0 0 0 0 0 0 0 0
0 0 0 0 0 0 0 0 0 0 0 0 0 0 0 0 0 0 0 0 0 0 0 0 0 0 0 0 0 0 0 0 0 0 0 0 0 0 0 0 0 0 0
0 0 0 0 0 0 0 0 0 0 0 0 0 0 0 0 0 0 0 0 0 0 0 0 0 0 0 0 0 0 0 0 0 0 0 0 0 0 0 0 0 0 0
0 0 0 0 0 0 0 1 0 0 0 0 0 0 0 0 0 0 0 0 0 0 0 0 0 0 0 0 0 0 0 0 0 0 0 0 0 0 0 0 0 0 0
0 0 0 0 0 0 0 0 0 0 0 0 0 0 0 0 0 0 0 0 0 0 0 0 0 0 0 0 0 0 0 0 0 0 0 0 0 0 0 0 0 0 0
0 0 0 0 0 0 0 0 0 0 0 0 0 0 0 0 0 0 0 0 0 0 0 0 0 0 0 0 0 0 0 0 0 0 0 0 0 0 0 0 0 0 0
CIN
-0 -0 -0 -0 -0 -0 -0 -0 -0 -0 -0 -0 -0 -0 -0 -0 -0 -0 -0 -0 -0 -0 -0 -0 -0 -18 -0 -0 -4 -0 -0 -0 -0 -0 -0 -0 -0 -0 -0 -0 -0 -0 -0
-0 -0 -0 -0 -0 -0 -0 -0 -0 -0 -0 -0 -0 -0 -0 -0 -0 -0 -0 -0 -0 -0 -0 -0 -0 -0 -8 -0 -0 -4 -0 -0 -0 -0 -0 -0 -0 -0 -0 -0 -0 -0 -0
-0 -0 -0 -0 -0 -0 -0 -0 -0 -0 -0 -0 -0 -0 -0 -0 -0 -0 -0 -0 -0 -0 -0 -0 -0 -0 -9 -7 -1 -14 -4 -0 -0 -0 -0 -0 -0 -0 -0 -0 -0 -0 -0
-149 -32 -0 -0 -0 -0 -0 -0 -0 -0 -0 -0 -0 -2 -16 -15 -21 -23 -12 -4 -0 -4 -19 -25 -19 -18 -12 -10 -4 -12 -14 -0 -0 -0 -0 -0 -0 -0 -0 -0 -0 -0 -0
-100 -97 -109 -46 -100 -86 -0 -0 -0 -0 -0 -7 -8 -13 -12 -19 -21 -20 -11 -0 -17 -14 -23 -36 -27 -30 -25 -16 -10 -3 -1 -0 -1 -1 -0 -0 -0 -0 -0 -0 -0 -0 -0
-60 -62 -60 -62 -66 -73 -55 -50 -24 -30 -33 -9 -7 -7 -11 -15 -5 -0 -0 -0 -17 -12 -25 -33 -40 -5 -0 -0 -0 -10 -8 -12 -11 -2 -0 -1 -25 -6 -0 -0 -0 -0 -0
-13 -20 -18 -20 -25 -18 -14 -11 -14 -14 -8 -18 -15 -10 -16 -14 -0 -0 -0 -0 -19 -36 -0 -0 -0 -0 -0 -0 -0 -0 -0 -0 -0 -0 -0 -48 -47 -15 -2 -8 -6 -0 -0
-52 -38 -26 -20 -27 -19 -26 -32 -15 -11 -9 -5 -4 -4 -3 -1 -0 -0 -0 -0 -45 -0 -0 -0 -0 -0 -0 -0 -0 -0 -0 -0 -0 -0 -0 -0 -0 -19 -15 -10 -0 -6 -5
-149 -133 -118 -85 -86 -83 -17 -61 -16 -15 -7 -9 -6 -3 -1 -1 -0 -0 -0 -19 -19 -0 -0 -0 -0 -0 -0 -0 -0 -0 -0 -0 -0 -0 -0 -0 -0 -0 -11 -2 -22 -0 -0
-0 -0 -0 -0 -0 -0 -0 -0 -0 -0 -0 -0 -0 -0 -6 -4 -1 -1 -0 -0 -0 -14 -0 -0 -0 -0 -0 -0 -0 -0 -0 -0 -0 -0 -0 -0 -0 -0 -0 -0 -12 -28 -9
-0 -0 -0 -0 -0 -0 -0 -0 -0 -0 -0 -0 -0 -0 -0 -0 -0 -0 -0 -0 -30 -0 -0 -0 -0 -0 -0 -0 -0 -0 -0 -0 -0 -0 -0 -0 -1 -0 -0 -0 -0 -0 -42
-0 -0 -0 -0 -0 -0 -0 -0 -0 -0 -0 -0 -0 -0 -0 -0 -0 -2 -0 -6 -13 -16 -0 -0 -0 -0 -0 -0 -0 -0 -0 -0 -0 -0 -0 -0 -0 -0 -0 -0 -0 -0 -0
-0 -0 -0 -0 -0 -0 -0 -0 -0 -0 -0 -0 -0 -0 -5 -5 -3 -4 -0 -0 -1 -18 -0 -0 -0 -0 -0 -0 -0 -0 -0 -0 -0 -0 -0 -0 -0 -0 -0 -0 -0 -0 -0
-0 -0 -0 -0 -0 -0 -0 -0 -0 -0 -0 -0 -0 -0 -0 -0 -3 -17 -5 -1 -4 -6 -11 -0 -0 -0 -0 -0 -0 -0 -0 -0 -0 -0 -0 -0 -0 -0 -0 -0 -0 -0 -0
-0 -0 -0 -0 -0 -0 -0 -0 -0 -0 -0 -0 -0 -0 -0 -0 -0 -0 -0 -0 -5 -1 -10 -0 -0 -0 -0 -0 -0 -0 -0 -1 -1 -0 -0 -1 -1 -0 -0 -0 -2 -0 -0
-0 -0 -0 -0 -0 -0 -0 -0 -0 -0 -0 -0 -0 -3 -0 -0 -0 -0 -0 -0 -0 -5 -0 -0 -0 -0 -0 -0 -0 -0 -0 -0 -1 -1 -0 -0 -1 -1 -0 -0 -0 -0 -0
-0 -0 -0 -0 -0 -0 -0 -0 -0 -0 -0 -0 -0 -0 -0 -0 -0 -0 -0 -0 -0 -0 -0 -0 -0 -0 -0 -0 -0 -0 -0 -0 -0 -0 -1 -0 -4 -2 -6 -0 -0 -0 -0
-0 -0 -0 -0 -0 -0 -0 -0 -0 -0 -0 -0 -0 -0 -0 -0 -0 -0 -0 -0 -0 -0 -0 -0 -0 -0 -0 -0 -0 -0 -0 -0 -0 -0 -0 -0 -0 -0 -0 -0 -0 -0 -0
-0 -0 -0 -0 -0 -0 -0 -0 -0 -0 -0 -0 -0 -0 -0 -0 -0 -0 -0 -0 -0 -0 -0 -0 -0 -0 -0 -0 -0 -0 -0 -0 -0 -0 -0 -0 -0 -0 -0 -0 -0 -0 -0
-0 -0 -0 -0 -0 -0 -0 -0 -0 -0 -0 -0 -0 -0 -0 -0 -0 -0 -0 -0 -0 -0 -0 -0 -0 -0 -0 -0 -0 -0 -0 -0 -0 -0 -0 -0 -0 -0 -0 -0 -0 -0 -0
-0 -0 -0 -0 -0 -0 -0 -0 -0 -0 -0 -0 -0 -0 -0 -0 -0 -0 -0 -0 -0 -0 -0 -0 -0 -0 -0 -0 -0 -0 -0 -0 -0 -0 -0 -0 -0 -0 -0 -0 -0 -0 -0
-0 -0 -0 -0 -0 -0 -0 -0 -0 -0 -0 -0 -0 -0 -0 -0 -0 -0 -0 -0 -0 -0 -0 -0 -0 -0 -0 -0 -0 -0 -0 -0 -0 -0 -0 -0 -0 -0 -0 -0 -0 -0 -0
-0 -0 -0 -0 -0 -0 -0 -0 -0 -0 -0 -0 -0 -0 -0 -0 -0 -0 -0 -0 -0 -0 -0 -0 -0 -0 -0 -0 -0 -0 -0 -0 -0 -0 -0 -0 -0 -0 -0 -0 -0 -0 -0
-0 -0 -0 -0 -0 -0 -0 -0 -0 -0 -0 -0 -0 -0 -0 -0 -0 -0 -0 -0 -0 -0 -0 -0 -0 -0 -0 -0 -0 -0 -0 -0 -0 -0 -0 -0 -0 -0 -0 -0 -0 -0 -0
-0 -0 -0 -0 -0 -0 -0 -0 -0 -0 -0 -0 -0 -0 -0 -0 -0 -0 -0 -0 -0 -0 -0 -0 -0 -0 -0 -0 -0 -0 -0 -0 -0 -0 -0 -0 -0 -0 -0 -0 -0 -0 -0
-0 -0 -0 -0 -0 -0 -0 -0 -0 -0 -0 -0 -0 -0 -0 -0 -0 -0 -0 -0 -0 -0 -0 -0 -0 -0 -0 -0 -0 -0 -0 -0 -0 -0 -0 -0 -0 -0 -0 -0 -0 -0 -0
Wind_Speed
9 9 9 9 10 10 10 9 9 11 11 10 11 10 11 11 11 11 12 10 12 13 14 14 14 14 14 12 13 12 13 14 15 16 16 16 16 17 16 16 16 16 16
9 10 11 11 12 12 13 13 13 14 14 15 14 14 13 13 12 12 12 12 10 12 13 14 15 15 14 13 12 10 9 11 13 14 15 16 16 16 16 15 15 14 15
10 10 12 13 13 13 14 15 15 16 16 17 17 15 15 13 12 13 15 15 14 11 11 13 16 16 14 13 13 12 11 9 11 12 14 14 14 15 15 14 14 14 13
11 12 12 14 13 14 14 15 16 17 17 17 16 15 15 16 16 16 18 18 17 15 13 12 15 16 16 16 16 16 14 12 10 11 11 12 12 14 14 13 12 12 12
8 10 12 14 15 16 15 16 17 17 18 18 19 19 20 21 22 21 21 20 18 19 18 16 16 19 20 19 19 21 22 19 16 14 10 10 11 12 12 11 10 10 10
7 9 12 15 16 18 19 19 19 20 21 23 24 23 23 22 22 21 19 18 18 20 18 17 19 22 23 24 23 22 24 25 25 24 19 13 9 9 9 9 8 7 8
10 12 14 16 19 21 22 22 23 24 25 26 29 28 25 22 22 20 18 17 17 16 15 18 19 22 23 24 24 24 25 26 27 26 23 22 18 10 7 6 6 6 7
14 15 17 19 22 24 25 25 26 27 26 25 28 30 32 27 24 22 21 18 15 13 15 16 18 20 22 22 23 25 26 27 27 26 25 24 22 21 17 9 8 7 6
17 20 22 23 24 25 27 27 27 27 29 27 26 27 30 29 25 23 23 21 18 16 16 16 18 19 19 21 24 26 27 26 26 26 26 24 23 22 21 21 15 9 8
19 20 23 24 25 26 26 26 26 26 26 28 27 22 22 25 28 29 22 22 20 20 18 17 18 19 20 21 23 26 26 26 27 27 27 26 25 25 24 23 23 21 14
19 21 23 25 26 26 27 27 27 26 26 26 26 26 26 25 24 26 29 24 21 20 19 17 17 18 20 22 24 25 26 26 27 27 26 24 24 25 25 25 26 25 21
20 21 23 25 26 27 27 27 27 26 26 25 25 26 26 26 25 24 25 23 22 19 17 18 18 20 21 23 24 24 26 27 29 28 25 23 23 24 25 26 28 26 16
21 22 24 26 26 27 27 27 28 27 26 26 26 26 26 25 25 24 23 23 20 17 17 17 20 20 21 22 22 23 24 26 27 26 23 22 24 26 26 26 28 30 17
22 23 25 26 26 27 27 28 27 27 26 23 25 27 26 25 24 23 23 19 22 15 16 16 17 19 20 21 21 21 22 25 25 24 22 22 24 25 25 25 27 28 23
23 25 26 26 27 27 27 27 27 27 26 24 24 25 24 23 21 21 20 19 17 21 16 17 17 19 19 20 20 21 22 23 23 22 22 23 23 23 24 25 26 27 26
22 24 26 26 27 27 27 27 27 26 26 24 24 25 22 21 19 19 18 17 16 16 19 16 17 17 20 18 19 20 21 20 21 21 22 22 22 22 23 24 25 25 25
24 26 26 27 26 27 27 27 26 27 27 24 24 23 22 20 19 19 18 18 17 17 16 16 16 18 18 17 19 19 19 18 19 20 21 21 22 22 22 23 23 23 23
23 24 25 26 26 26 27 27 26 25 24 24 23 21 21 19 19 19 19 18 17 15 14 15 15 16 16 17 17 18 18 18 19 20 21 22 22 22 22 22 23 22 21
22 23 24 25 26 27 27 26 25 22 21 22 21 20 19 18 18 18 16 15 15 15 14 14 14 15 16 17 17 18 18 18 19 21 20 21 22 22 22 21 21 22 21
23 24 24 24 25 25 25 24 21 20 20 19 19 19 19 18 17 16 16 15 15 13 13 12 14 15 16 17 18 19 18 21 21 22 22 21 21 22 22 20 21 21 21
22 22 23 23 24 24 23 23 20 19 19 18 18 17 17 16 16 15 14 14 14 13 14 13 14 15 17 19 19 20 20 20 19 22 22 22 21 21 20 20 21 22 21
21 21 22 22 22 22 22 21 17 17 17 15 15 14 15 14 14 13 13 15 15 14 15 15 15 16 17 18 19 20 21 20 19 21 23 20 21 20 20 20 21 23 21
21 21 22 22 21 21 19 17 17 16 15 14 14 14 14 14 14 14 14 15 16 16 16 15 15 16 17 18 18 20 20 20 20 21 21 17 20 19 21 21 21 23 21
21 21 20 19 19 19 16 15 14 12 11 12 12 12 11 12 13 13 14 14 15 16 16 16 15 16 16 17 18 18 19 20 19 18 20 17 20 19 22 20 20 21 21
20 20 19 17 17 16 13 12 11 11 10 11 11 11 11 12 13 14 14 15 14 15 16 16 16 17 17 17 18 18 18 19 18 18 21 19 20 22 21 19 20 22 23
19 17 15 15 14 13 11 11 10 9 9 10 11 12 11 11 13 14 14 14 15 15 16 17 18 18 18 18 18 17 16 18 17 19 19 20 21 22 20 19 21 24 23
Wind_Direction
349 5 25 34 37 31 30 42 41 32 30 33 26 29 27 23 22 21 18 21 16 14 12 12 10 7 6 7 9 12 16 17 13 9 7 6 5 1 4 8 8 10 9
338 346 355 2 4 6 4 5 9 6 6 4 7 8 10 9 9 8 6 4 2 2 3 4 2 357 356 356 357 359 1 4 3 3 2 1 0 357 357 1 3 3 4
324 335 341 346 352 354 358 353 354 354 353 351 353 357 359 359 357 358 357 355 351 347 349 353 354 354 354 352 350 350 349 345 350 354 353 355 356 353 355 356 357 357 1
315 324 333 335 343 345 350 349 347 346 348 349 352 353 353 350 351 350 349 347 347 347 346 342 348 353 355 353 352 348 342 340 336 337 345 348 349 346 350 354 353 354 354
319 326 329 332 333 336 342 342 341 343 341 342 341 343 342 341 340 342 340 342 345 345 345 347 351 352 352 352 353 350 346 340 337 333 326 335 340 341 344 350 353 353 353
316 323 328 329 330 330 330 332 334 334 334 332 332 332 334 335 335 336 338 339 341 345 354 3 358 354 351 350 351 350 346 340 334 333 334 331 320 327 332 337 342 346 347
315 317 322 325 325 323 324 326 326 325 326 329 327 327 331 334 332 331 332 334 338 351 358 357 359 357 356 354 356 352 347 340 335 333 333 333 332 314 303 310 322 327 329
317 318 318 318 318 317 319 320 321 320 323 326 323 324 325 331 335 342 343 343 347 354 352 352 356 355 354 356 357 350 344 339 336 335 335 335 333 330 330 303 289 301 302
314 309 311 313 314 316 315 316 317 318 316 321 322 322 324 326 334 340 345 347 346 344 345 350 352 354 356 355 351 347 343 340 338 336 335 337 337 333 328 325 322 295 279
312 313 310 312 316 317 317 318 321 320 321 319 323 326 323 323 325 326 336 338 341 341 342 347 351 356 356 355 353 348 344 341 339 337 337 337 336 331 330 328 323 320 323
312 314 315 314 315 317 318 318 319 320 321 319 319 321 320 319 320 318 319 326 332 337 342 347 351 353 353 351 350 348 344 342 340 338 337 339 337 334 332 325 317 315 320
309 314 317 317 318 318 318 318 319 319 319 319 318 317 316 317 320 320 319 321 324 330 340 344 349 348 349 349 348 347 344 341 340 340 340 341 341 339 331 327 317 317 324
307 312 316 317 318 318 318 318 317 316 317 315 317 317 318 316 315 315 315 318 320 327 333 344 344 346 347 349 349 349 348 346 345 344 351 348 342 336 332 331 322 308 324
306 312 314 317 318 318 317 317 317 317 317 316 316 317 316 316 316 316 315 316 317 319 330 334 343 345 345 348 350 351 350 348 346 349 353 351 344 335 338 335 333 324 323
307 311 312 314 315 316 316 316 316 316 316 316 317 317 317 318 321 320 320 320 318 317 316 333 334 342 344 347 351 351 350 349 350 350 349 347 343 340 337 337 338 338 334
311 312 313 313 314 315 315 314 314 315 314 315 316 316 317 318 321 324 325 325 327 325 321 333 334 338 340 347 351 350 350 352 348 346 347 346 346 346 345 340 342 346 349
308 311 313 312 313 314 314 313 313 313 312 312 316 316 315 318 319 321 322 323 323 323 318 328 334 335 338 346 346 351 354 359 356 350 346 345 345 347 346 341 341 345 350
310 311 312 313 314 315 315 314 313 315 314 312 314 316 317 319 319 320 322 322 323 327 326 325 332 336 343 344 346 349 351 356 359 353 350 345 343 345 344 341 339 339 342
309 313 314 313 313 314 314 313 314 316 318 317 317 318 319 320 319 322 325 326 327 328 332 332 335 342 343 344 344 343 348 350 350 348 349 347 345 344 341 342 341 340 340
310 311 314 316 316 314 314 314 316 318 320 321 322 322 320 321 321 322 325 327 329 333 337 336 338 339 339 338 339 338 340 340 339 341 343 343 344 343 342 346 345 340 338
316 317 317 318 318 316 316 312 312 314 317 318 320 322 322 325 325 325 328 333 328 333 330 332 334 335 333 330 331 335 335 338 342 340 338 339 342 344 346 345 342 338 336
318 318 319 319 321 320 316 314 316 317 319 319 318 320 323 329 335 340 341 329 328 327 326 326 332 329 332 333 332 333 333 336 340 338 336 344 345 348 346 345 343 338 337
319 319 319 320 320 320 320 319 317 316 317 316 316 317 322 329 336 334 327 334 330 335 334 336 337 334 334 335 335 332 333 334 336 337 342 348 346 347 344 343 345 343 344
319 320 321 322 322 322 323 324 327 330 325 320 323 323 327 333 333 331 326 326 331 331 336 344 345 343 344 344 339 336 335 335 339 346 347 349 343 346 341 343 346 346 345
321 323 322 321 321 321 325 328 332 334 333 328 329 327 324 326 325 327 322 323 327 334 344 349 347 345 345 343 341 339 337 336 340 343 343 345 344 341 342 344 345 344 341
323 325 326 325 322 321 326 329 332 334 336 329 324 322 327 327 325 323 323 328 329 334 340 341 341 340 345 344 344 343 345 340 340 340 345 342 342 342 340 342 340 339 339